Kearney, NE

7:46 AM CDT on September 29, 2016 (GMT -0500)
Kearney Municipal

Weather History for KEAR - January, 2012

Change the Weather History Date:

Thursday, January 5, 2012

  Actual Average Record
Temperature  
Mean Temperature 50 °F 24 °F  
Max Temperature 68 °F 36 °F 68 °F (2012)
Min Temperature 32 °F 13 °F -20 °F (1924)
Degree Days  
Heating Degree Days 15 41  
Month to date heating degree days 205  
Since 1 July heating degree days 2848  
Cooling Degree Days 0 0  
Month to date cooling degree days 0  
Year to date cooling degree days 0  
Moisture  
Dew Point 24 °F    
Average Humidity 44    
Maximum Humidity 66    
Minimum Humidity 22    
Precipitation  
Precipitation 0.00 in - 0.33 in (2005)
Sea Level Pressure  
Sea Level Pressure 30.01 in    
Wind  
Wind Speed 9 mph (WSW)    
Max Wind Speed 16 mph    
Max Gust Speed 20 mph    
Visibility 10 miles    
Events      
T = Trace of Precipitation, MM = Missing Value Source: NWS Daily Summary

Daily Weather History Graph

Daily Weather History Graph

Search for Another Location

Airport or City:

Trip Planner

Search our weather history database for the weather conditions in past years. The results will help you decide how hot, cold, wet, or windy it might be!

Date:

Astronomy

Jan. 05, 2012 Rise Set
Actual Time 8:00 AM CST 5:22 PM CST
Civil Twilight 7:29 AM CST 5:53 PM CST
Nautical Twilight 6:55 AM CST 6:27 PM CST
Astronomical Twilight 6:22 AM CST 7:00 PM CST
Moon 2:27 PM CST (1/5) 4:47 AM CST (1/5)
Length of Visible Light 10h 23m
Length of Day
9h 22m
Waxing Gibbous, 88% of the Moon is Illuminated
Jan 5
Waxing Gibbous
Jan 9
Full
Jan 16
Last Quarter
Jan 23
New
Jan 30
First Quarter

Hourly Weather History & Observations

Time (CST) Temp. Windchill Dew Point Humidity Pressure Visibility Wind Dir Wind Speed Gust Speed Precip Events Conditions
12:15 AM 37.4 °F 32.8 °F 23.0 °F 56% 30.15 in 10.0 mi West 5.8 mph - N/A   Clear
12:35 AM 42.8 °F 38.0 °F 21.2 °F 42% 30.15 in 10.0 mi West 8.1 mph - N/A   Clear
12:55 AM 41.0 °F 39.0 °F 21.2 °F 45% 30.14 in 10.0 mi West 3.5 mph - N/A   Clear
1:15 AM 39.2 °F 34.2 °F 21.2 °F 49% 30.14 in 10.0 mi WNW 6.9 mph - N/A   Clear
1:35 AM 37.4 °F 32.1 °F 21.2 °F 52% 30.14 in 10.0 mi West 6.9 mph - N/A   Clear
1:55 AM 41.0 °F 34.7 °F 21.2 °F 45% 30.14 in 10.0 mi WNW 10.4 mph - N/A   Clear
2:15 AM 37.4 °F 30.8 °F 21.2 °F 52% 30.13 in 10.0 mi WNW 9.2 mph - N/A   Clear
2:35 AM 42.8 °F 37.0 °F 21.2 °F 42% 30.13 in 10.0 mi West 10.4 mph - N/A   Clear
2:55 AM 42.8 °F 37.5 °F 21.2 °F 42% 30.13 in 10.0 mi WNW 9.2 mph - N/A   Clear
3:15 AM 41.0 °F 35.2 °F 21.2 °F 45% 30.13 in 10.0 mi West 9.2 mph - N/A   Clear
3:35 AM 41.0 °F 34.7 °F 21.2 °F 45% 30.12 in 10.0 mi West 10.4 mph - N/A   Clear
3:55 AM 41.0 °F 35.2 °F 21.2 °F 45% 30.11 in 10.0 mi West 9.2 mph - N/A   Clear
4:15 AM 42.8 °F 38.6 °F 21.2 °F 42% 30.11 in 10.0 mi WSW 6.9 mph - N/A   Clear
4:35 AM 37.4 °F 32.1 °F 21.2 °F 52% 30.11 in 10.0 mi West 6.9 mph - N/A   Clear
4:55 AM 33.8 °F 27.7 °F 21.2 °F 60% 30.10 in 10.0 mi SW 6.9 mph - N/A   Clear
5:15 AM 35.6 °F 29.2 °F 23.0 °F 60% 30.10 in 10.0 mi SW 8.1 mph - N/A   Clear
5:35 AM 35.6 °F 29.2 °F 23.0 °F 60% 30.10 in 10.0 mi West 8.1 mph - N/A   Clear
5:55 AM 35.6 °F 29.2 °F 23.0 °F 60% 30.09 in 10.0 mi West 8.1 mph - N/A   Clear
6:15 AM 37.4 °F 32.1 °F 21.2 °F 52% 30.09 in 10.0 mi WSW 6.9 mph - N/A   Clear
6:35 AM 33.8 °F 27.0 °F 23.0 °F 65% 30.08 in 10.0 mi SW 8.1 mph - N/A   Clear
6:55 AM 32.0 °F 25.6 °F 23.0 °F 69% 30.08 in 10.0 mi WSW 6.9 mph - N/A   Clear
7:15 AM 33.8 °F 27.0 °F 23.0 °F 65% 30.07 in 10.0 mi WSW 8.1 mph - N/A   Clear
7:35 AM 33.8 °F 27.7 °F 23.0 °F 65% 30.06 in 10.0 mi WSW 6.9 mph - N/A   Clear
7:55 AM 33.8 °F 27.0 °F 21.2 °F 60% 30.05 in 10.0 mi WSW 8.1 mph - N/A   Clear
8:15 AM 33.8 °F 27.0 °F 23.0 °F 65% 30.05 in 10.0 mi WSW 8.1 mph - N/A   Clear
8:35 AM 35.6 °F 30.7 °F 23.0 °F 60% 30.05 in 10.0 mi West 5.8 mph - N/A   Clear
8:55 AM 39.2 °F 33.6 °F 24.8 °F 56% 30.05 in 10.0 mi West 8.1 mph - N/A   Clear
9:15 AM 37.4 °F 30.8 °F 24.8 °F 60% 30.05 in 10.0 mi SW 9.2 mph - N/A   Clear
9:35 AM 39.2 °F 31.6 °F 24.8 °F 56% 30.05 in 10.0 mi WSW 12.7 mph - N/A   Clear
9:55 AM 39.2 °F 31.6 °F 24.8 °F 56% 30.04 in 10.0 mi West 12.7 mph - N/A   Clear
10:15 AM 42.8 °F 38.6 °F 24.8 °F 49% 30.04 in 9.0 mi WSW 6.9 mph - N/A   Clear
10:35 AM 46.4 °F 41.5 °F 24.8 °F 43% 30.05 in 10.0 mi West 10.4 mph - N/A   Clear
10:55 AM 48.2 °F - 24.8 °F 40% 30.04 in 10.0 mi West 10.4 mph - N/A   Clear
11:15 AM 50.0 °F - 24.8 °F 37% 30.03 in 10.0 mi West 9.2 mph - N/A   Clear
11:35 AM 53.6 °F - 24.8 °F 33% 30.02 in 10.0 mi WSW 8.1 mph - N/A   Clear
11:55 AM 51.8 °F - 26.6 °F 38% 30.01 in 10.0 mi WSW 10.4 mph - N/A   Clear
12:15 PM 53.6 °F - 26.6 °F 35% 29.99 in 10.0 mi West 9.2 mph - N/A   Clear
12:35 PM 55.4 °F - 26.6 °F 33% 29.97 in 10.0 mi West 11.5 mph - N/A   Clear
12:55 PM 59.0 °F - 26.6 °F 29% 29.94 in 10.0 mi West 10.4 mph - N/A   Clear
1:15 PM 60.8 °F - 26.6 °F 27% 29.93 in 10.0 mi West 12.7 mph - N/A   Clear
1:35 PM 62.6 °F - 24.8 °F 24% 29.91 in 10.0 mi West 11.5 mph - N/A   Clear
1:55 PM 64.4 °F - 24.8 °F 22% 29.90 in 10.0 mi WSW 11.5 mph - N/A   Clear
2:15 PM 66.2 °F - 24.8 °F 21% 29.88 in 10.0 mi WSW 13.8 mph 17.3 mph N/A   Clear
2:35 PM 68.0 °F - 26.6 °F 21% 29.87 in 10.0 mi SW 12.7 mph - N/A   Clear
2:55 PM 66.2 °F - 26.6 °F 23% 29.86 in 10.0 mi SW 16.1 mph - N/A   Clear
3:15 PM 66.2 °F - 26.6 °F 23% 29.86 in 10.0 mi SW 13.8 mph - N/A   Clear
3:35 PM 66.2 °F - 26.6 °F 23% 29.85 in 10.0 mi SW 16.1 mph - N/A   Clear
3:55 PM 66.2 °F - 26.6 °F 23% 29.84 in 10.0 mi SW 15.0 mph 19.6 mph N/A   Clear
4:15 PM 64.4 °F - 26.6 °F 24% 29.84 in 10.0 mi SW 12.7 mph - N/A   Clear
4:35 PM 64.4 °F - 26.6 °F 24% 29.84 in 10.0 mi SW 12.7 mph - N/A   Clear
4:55 PM 62.6 °F - 26.6 °F 26% 29.83 in 10.0 mi SW 6.9 mph - N/A   Clear
5:15 PM 55.4 °F - 24.8 °F 31% 29.83 in 10.0 mi SW 4.6 mph - N/A   Clear
5:35 PM 55.4 °F - 24.8 °F 31% 29.83 in 10.0 mi WSW 9.2 mph - N/A   Clear
5:55 PM 53.6 °F - 28.4 °F 38% 29.82 in 10.0 mi SW 9.2 mph - N/A   Clear
6:15 PM 55.4 °F - 26.6 °F 33% 29.82 in 10.0 mi WSW 8.1 mph - N/A   Clear
6:35 PM 53.6 °F - 28.4 °F 38% 29.82 in 10.0 mi WSW 11.5 mph - N/A   Clear
6:55 PM 53.6 °F - 26.6 °F 35% 29.82 in 10.0 mi SW 13.8 mph - N/A   Clear
7:15 PM 53.6 °F - 26.6 °F 35% 29.81 in 10.0 mi WSW 11.5 mph - N/A   Clear
7:35 PM 51.8 °F - 26.6 °F 38% 29.81 in 10.0 mi WSW 9.2 mph - N/A   Clear
7:55 PM 53.6 °F - 26.6 °F 35% 29.81 in 10.0 mi WSW 4.6 mph - N/A   Clear
8:15 PM 42.8 °F 38.0 °F 23.0 °F 46% 29.81 in 10.0 mi WSW 8.1 mph - N/A   Clear
8:35 PM 51.8 °F - 26.6 °F 38% 29.80 in 10.0 mi West 8.1 mph - N/A   Clear
8:55 PM 48.2 °F - 26.6 °F 43% 29.80 in 10.0 mi West 3.5 mph - N/A   Clear
9:15 PM 46.4 °F 45.2 °F 26.6 °F 46% 29.80 in 10.0 mi West 3.5 mph - N/A   Clear
9:35 PM 51.8 °F - 28.4 °F 41% 29.79 in 10.0 mi West 8.1 mph - N/A   Clear
9:55 PM 48.2 °F - 26.6 °F 43% 29.79 in 10.0 mi WNW 5.8 mph - N/A   Clear
10:15 PM 48.2 °F - 26.6 °F 43% 29.78 in 10.0 mi West 8.1 mph - N/A   Clear
10:35 PM 51.8 °F - 26.6 °F 38% 29.78 in 10.0 mi WNW 4.6 mph - N/A   Clear
10:55 PM 46.4 °F 42.9 °F 24.8 °F 43% 29.78 in 10.0 mi WNW 6.9 mph - N/A   Clear
11:15 PM 42.8 °F 38.0 °F 24.8 °F 49% 29.77 in 10.0 mi WNW 8.1 mph - N/A   Clear
11:35 PM 41.0 °F 34.7 °F 24.8 °F 53% 29.77 in 10.0 mi WNW 10.4 mph - N/A   Clear
11:55 PM 39.2 °F 32.5 °F 24.8 °F 56% 29.76 in 10.0 mi WNW 10.4 mph - N/A   Clear